Hourly Data Report for September 08, 2017

All times are specified in Local Standard Time (LST). Add 1 hour to adjust for Daylight Saving Time where and when it is observed.

ARCTIC BAY CS
NUNAVUT

72°59'34.000" N
85°00'44.000" W
10.00 m
2400404
71592
XAT

Download Data

Hourly Data (September 2017)
Hourly Data Report for September 8, 2017
Temp Definition
°C
Dew Point Temp Definition
°C
Rel Hum Definition
%
Wind Dir Definition
10's deg

Wind Spd Definition
km/h
Visibility Definition
km
Stn Press Definition
kPa
Hmdx Definition


Wind Chill Definition


Weather Definition


TIME
00:00 -2.8 -4.1 91 31 17   99.86   -8 LegendNANA
01:00 -2.8 -4.7 87 30 18   99.83   -8 LegendNANA
02:00 -3.1 -5.7 82 28 20   99.79   -9 LegendNANA
03:00 -2.9 -4.9 86 27 23   99.73   -9 LegendNANA
04:00 -2.9 -5.3 84 27 19   99.68   -9 LegendNANA
05:00 -3.1 -6.0 80 25 17   99.60   -9 LegendNANA
06:00 -2.4 -4.6 85 25 20   99.49   -8 LegendNANA
07:00 -2.7 -5.5 82 23 19   99.41   -8 LegendNANA
08:00 -2.2 -4.0 87 28 19   99.31   -8 LegendNANA
09:00 -3.9 -6.4 83 33 18   99.30   -10 LegendNANA
10:00 -3.2 -6.1 81 31 9   99.23   -7 LegendNANA
11:00 -3.9 -8.9 68 30 5   99.19   -6 LegendNANA
12:00 -3.1 -8.2 68 29 5   99.14   -5 LegendNANA
13:00 -3.0 -8.2 67 0 1   99.11   -3 LegendNANA
14:00 -3.1 -7.1 74 34 6   99.06   -6 LegendNANA
15:00 -3.0 -7.6 71 1 3   99.04   -4 LegendNANA
16:00 -2.4 -8.1 65 26 5   98.97   -4 LegendNANA
17:00 -4.1 -8.3 73 1 5   98.92   -6 LegendNANA
18:00 -3.6 -7.4 75 6 7   98.86   -7 LegendNANA
19:00 -3.5 -7.3 75 6 7   98.80   -6 LegendNANA
20:00 -3.2 -7.0 75 10 6   98.78   -6 LegendNANA
21:00 -3.6 -5.8 84 9 7   98.71   -7 LegendNANA
22:00 -3.4 -5.4 86 6 8   98.67   -7 LegendNANA
23:00 -3.4 -4.8 90 36 7   98.59   -6 LegendNANA

Notes on Data Quality.

Legend

  • E = Estimated
  • M = Missing
  • NA = Not Available
  • ‡ = Partner data that is not subject to review by the National Climate Archives
Date modified: